Weather History for Kirksville, MO

Change the Weather History Date:

Monday, May 20, 2013

  Actual Average Record
Temperature  
Mean Temperature 69 °F 63 °F  
Max Temperature 78 °F 74 °F 91 °F (1941)
Min Temperature 59 °F 53 °F 38 °F (1931)
Degree Days  
Heating Degree Days 0 4  
Month to date heating degree days 158 123  
Since 1 July heating degree days 6004 5813  
Cooling Degree Days 4 2  
Month to date cooling degree days 41 26  
Year to date cooling degree days 51 33  
Growing Degree Days 18 (Base 50)    
Moisture  
Dew Point 62 °F    
Average Humidity 79    
Maximum Humidity 97    
Minimum Humidity 60    
Precipitation  
Precipitation 0.44 in 0.14 in 1.24 in (1984)
Month to date precipitation 2.41 3.17  
Year to date precipitation 18.38 12.36  
Sea Level Pressure  
Sea Level Pressure 29.72 in    
Wind  
Wind Speed 11 mph (SSW)    
Max Wind Speed 16 mph    
Max Gust Speed 31 mph    
Visibility 8 miles    
Events Rain , Thunderstorm    
T = Trace of Precipitation, MM = Missing Value Source: NWS Daily Summary

Daily Weather History Graph

Daily Weather History Graph

Search for Another Location

Airport:

Trip Planner

Search our weather history database for the weather conditions in past years. The results will help you decide how hot, cold, wet, or windy it might be!

Date:

Astronomy

May. 20, 2013 Rise Set
Actual Time 5:50 AM CDT 8:23 PM CDT
Civil Twilight 5:19 AM CDT 8:55 PM CDT
Nautical Twilight 4:40 AM CDT 9:34 PM CDT
Astronomical Twilight 3:56 AM CDT 10:17 PM CDT
Moon 3:31 PM CDT (5/20) 2:45 AM CDT (5/20)
Length of Visible Light 15h 36m
Length of Day
14h 33m
Waxing Gibbous, 75% of the Moon is Illuminated
May 20
Waxing Gibbous
May 24
Full
May 31
Last Quarter
Jun 8
New
Jun 16
First Quarter

Hourly Weather History & Observations

Time (CDT) Temp. Dew Point Humidity Pressure Visibility Wind Dir Wind Speed Gust Speed Precip Events Conditions
12:03 AM 64.4 °F 60.8 °F 88% 29.80 in 5.0 mi SW 21.9 mph 33.4 mph 0.00 in Rain , Thunderstorm Light Rain
12:06 AM 64.4 °F 60.8 °F 88% 29.79 in 1.5 mi SW 17.3 mph 33.4 mph 0.04 in Rain , Thunderstorm Heavy Rain
12:15 AM 62.6 °F 60.8 °F 94% 29.77 in 1.5 mi SSW 16.1 mph 27.6 mph 0.28 in Rain , Thunderstorm Heavy Rain
12:20 AM 62.6 °F 60.8 °F 94% 29.78 in 3.0 mi SSW 12.7 mph 23.0 mph 0.29 in Rain , Thunderstorm Light Rain
12:45 AM 60.8 °F 59.0 °F 94% 29.81 in 6.0 mi SSW 13.8 mph 21.9 mph 0.34 in Rain , Thunderstorm Light Rain
12:55 AM 61.0 °F 59.0 °F 93% 29.81 in 5.0 mi SW 13.8 mph 21.9 mph 0.37 in Rain , Thunderstorm Thunderstorms and Rain
1:15 AM 60.8 °F 59.0 °F 94% 29.74 in 4.0 mi SSE 8.1 mph - 0.07 in Rain Rain
1:55 AM 60.1 °F 60.1 °F 100% 29.72 in 10.0 mi SSW 10.4 mph - 0.11 in   Partly Cloudy
2:55 AM 60.8 °F 60.8 °F 100% 29.71 in 10.0 mi South 16.1 mph - N/A Rain Light Rain
3:55 AM 60.1 °F 59.0 °F 96% 29.67 in 10.0 mi South 16.1 mph 24.2 mph 0.05 in   Clear
4:55 AM 60.1 °F 59.0 °F 96% 29.69 in 10.0 mi South 10.4 mph - N/A   Clear
5:55 AM 60.1 °F 57.9 °F 93% 29.68 in 10.0 mi South 5.8 mph - N/A   Clear
6:55 AM 60.8 °F 57.2 °F 88% 29.73 in 10.0 mi South 8.1 mph - N/A Rain Light Rain
7:55 AM 63.0 °F 59.0 °F 87% 29.72 in 10.0 mi SW 4.6 mph - 0.00 in   Clear
8:55 AM 66.2 °F 59.0 °F 78% 29.74 in 10.0 mi SSW 11.5 mph - N/A   Clear
9:55 AM 68.0 °F 60.1 °F 76% 29.75 in 10.0 mi SW 10.4 mph 19.6 mph N/A   Clear
10:55 AM 71.1 °F 60.1 °F 68% 29.75 in 10.0 mi SW 16.1 mph 26.5 mph N/A   Clear
11:55 AM 69.1 °F 61.0 °F 75% 29.79 in 10.0 mi SW 16.1 mph 23.0 mph N/A   Clear
12:55 PM 70.0 °F 60.1 °F 71% 29.75 in 10.0 mi SW 9.2 mph - N/A   Clear
1:55 PM 75.9 °F 60.1 °F 58% 29.76 in 10.0 mi WSW 11.5 mph 25.3 mph N/A   Clear
2:55 PM 73.9 °F 61.0 °F 64% 29.77 in 10.0 mi SW 12.7 mph 21.9 mph N/A   Mostly Cloudy
3:55 PM 75.0 °F 64.0 °F 69% 29.75 in 10.0 mi South 12.7 mph - N/A   Mostly Cloudy
4:55 PM 73.9 °F 63.0 °F 68% 29.72 in 10.0 mi South 11.5 mph - N/A   Mostly Cloudy
5:24 PM 69.8 °F 64.4 °F 83% 29.70 in 8.0 mi SSE 5.8 mph - 0.01 in Rain , Thunderstorm Light Rain
5:38 PM 69.8 °F 64.4 °F 83% 29.72 in 1.8 mi WSW 12.7 mph 21.9 mph 0.01 in Rain , Thunderstorm Light Thunderstorms and Rain
5:51 PM 66.2 °F 64.4 °F 94% 29.66 in 4.0 mi East 11.5 mph 20.7 mph 0.11 in Rain , Thunderstorm Light Thunderstorms and Rain
5:55 PM 69.1 °F 64.0 °F 84% 29.67 in 7.0 mi ESE 16.1 mph - 0.11 in Rain , Thunderstorm Light Thunderstorms and Rain
6:12 PM 68.0 °F 64.4 °F 88% 29.63 in 9.0 mi ESE 8.1 mph - 0.01 in Rain Light Rain
6:27 PM 69.8 °F 66.2 °F 88% 29.71 in 8.0 mi SSW 15.0 mph 28.8 mph 0.01 in Rain , Thunderstorm Light Rain
6:34 PM 69.8 °F 66.2 °F 88% 29.72 in 4.0 mi SSW 15.0 mph 24.2 mph 0.02 in Rain , Thunderstorm Light Rain
6:45 PM 68.0 °F 66.2 °F 94% 29.68 in 2.0 mi Variable 4.6 mph 20.7 mph 0.06 in Rain , Thunderstorm Thunderstorms and Rain
6:55 PM 68.0 °F 66.0 °F 93% 29.66 in 4.0 mi SSW 4.6 mph - 0.07 in Rain , Thunderstorm Light Rain
7:15 PM 66.2 °F 66.2 °F 100% 29.66 in 7.0 mi Calm Calm - 0.00 in   Scattered Clouds
7:55 PM 68.0 °F 66.0 °F 93% 29.66 in 7.0 mi South 5.8 mph - 0.00 in   Scattered Clouds
8:55 PM 64.4 °F 62.6 °F 94% 29.65 in 10.0 mi SSW 9.2 mph - N/A   Clear
9:55 PM 63.0 °F 61.0 °F 93% 29.64 in 10.0 mi South 8.1 mph - N/A   Clear
10:55 PM 62.1 °F 61.0 °F 96% 29.67 in 10.0 mi SSW 10.4 mph - N/A   Clear
11:55 PM 62.1 °F 61.0 °F 96% 29.68 in 10.0 mi South 6.9 mph - N/A   Clear